Showing default

OPS 2222, 3334

Orbit data source: Space-Track

OPS 2222, 3334 is an American payload satellite in GEO that was launched on Tue, 06 Aug 1968 UTC via an ATLAS SLV-3A AGENA D launch vehicle from the Air Force Eastern Test Range (AFETR). Payload-class satellites include a variety of spacecraft equipped with specific instruments for various scientific and technological missions. These include communications satellites like Starlink; space stations such as the ISS; scientific satellites like the Hubble; Earth observation satellites from companies like Planet Labs, Umbra, and HawkEye 360; GPS; miniature CubeSats for education and research; and military/defense satellites.

Loading next visibility...
Identifier
3334, 1968-063A
Orbit
GEO
Country
Flag of USUS
Related business
Manufacturer
LMSC?
Mission
Non-operational Defense Sigint
Bus & Motor
CANYON, Unknown motor
Mass
~240 kg wet, ~200 kg dry
Launch date (UTC)
1968-08-06 (57 years ago)
Launch vehicle
ATLAS SLV-3A AGENA D
Launch site
Air Force Eastern Test Range (AFETR)
Object type
Payload
Rocket body
Debris
Shape & HBR
Cyl, 0.8 m
Radar Cross Section
2.639 m²

Expand to show TLE details & history
Last TLE update: 12 hours ago

TLE from 12 hours ago
0 OPS 2222
1 03334U 68063A   25245.78019867  .00000063  00000-0  00000-0 0  9999
2 03334   6.6600 285.5183 0915635 223.4354 331.1852  0.99252651 23273
Epoch: 2025-09-02T18:43Z
TLE epoch observation values (Epoch: 2025-09-02T18:43:29.165Z)
Latitude
-1.03738°
Longitude
-148.59186°
Altitude
32,749.749 km
Speed
3.314 km/s
True Right ascension
07h 37m 47s
True Declination
-1° 02' 10"
Sunlit
Object was in daylight at epoch
Visualization orbit readout
Latitude
Unknown
Longitude
Unknown
Altitude
Unknown
Speed
Unknown
Apparent Right ascension
Unknown
Apparent Declination
Unknown
Sunlit
N/A
Visualization observer readout
Local Sidereal Time
22:13:19
Azimuth
Unknown
Elevation
Unknown
Doppler factor
Unknown
Orbital elements
Apogee altitude
39,963.023 km
Perigee altitude
32,188.562 km
Semi-major axis
42,453.93 km
Eccentricity
0.09156
Inclination
6.66°
RAAN
285.5183°
Arg. of periapsis
223.4354°
True anomaly
325.57634°
Mean anomaly
331.1852°
Eccentric anomaly
328.43933°
Mean motion
0.24812 °/min
Orbital period
1,450.9 mins
BSTAR
0
Loading maneuver chart data...
Computing Atmospheric mass density...
Loading historical data...
Loading historical data...
Loading historical data...
Loading historical data...
Loading historical data...
Loading historical data...
Loading historical data...
Other satellites on launch #63 in the year 1968 (1968-08-06 UTC)

Documentation

Showing up to 5 results
|